When you browse on this site, cookies collect data to enhance your experience and personalize the content and advertising you see.
Visit our Privacy Policy to learn more. By continuing to use the site, you agree to this use of cookies and data.
  • In Czech Republic
  • List of Countries
  • For 7 days
  • Water Temperature
  • Weather Map
  • Weather Widgets
  • user-avatar
    Login

    Hourly Weather Ust-Maya

    Today, 27 May, Wednesday

    Time Temperature Precipitation Wind Pressure Humidity
    00:00 +15°C° 0 mm 2 mps 730 mmHg 65%
    01:00 +14°C° 0 mm 1 mps 730 mmHg 66%
    02:00 +13°C° 0 mm 1 mps 729 mmHg 68%
    03:00 +13°C° 0 mm 1 mps 729 mmHg 70%
    04:00 +14°C° 0 mm 1 mps 729 mmHg 68%
    05:00 +15°C° 0 mm 1 mps 729 mmHg 65%
    06:00 +16°C° 0 mm 1 mps 729 mmHg 63%
    07:00 +20°C° 0 mm 1 mps 729 mmHg 56%
    08:00 +22°C° 0 mm 1 mps 729 mmHg 50%
    09:00 +25°C° 0 mm 1 mps 729 mmHg 40%
    10:00 +27°C° 0 mm 1 mps 729 mmHg 37%
    11:00 +28°C° 0 mm 2 mps 728 mmHg 33%
    12:00 +30°C° 0 mm 2 mps 728 mmHg 29%
    13:00 +29°C° 0 mm 2 mps 728 mmHg 32%
    14:00 +28°C° 0 mm 3 mps 727 mmHg 34%
    15:00 +28°C° 0 mm 2 mps 727 mmHg 32%
    16:00 +28°C° 0 mm 2 mps 727 mmHg 35%
    17:00 +27°C° 0 mm 2 mps 727 mmHg 37%
    18:00 +27°C° 0 mm 1 mps 727 mmHg 40%
    19:00 +24°C° 0 mm 2 mps 727 mmHg 49%
    20:00 +20°C° 0 mm 2 mps 728 mmHg 58%
    21:00 +18°C° 0 mm 3 mps 728 mmHg 67%
    22:00 +17°C° 0 mm 3 mps 728 mmHg 72%
    23:00 +16°C° 0 mm 3 mps 728 mmHg 77%

    Tomorrow, 28 May, Thursday

    Time Temperature Precipitation Wind Pressure Humidity
    00:00 +14°C° 0 mm 3 mps 728 mmHg 83%
    01:00 +13°C° 0 mm 3 mps 728 mmHg 85%
    02:00 +12°C° 0 mm 3 mps 728 mmHg 87%
    03:00 +13°C° 0 mm 2 mps 727 mmHg 89%
    04:00 +13°C° 0 mm 3 mps 727 mmHg 83%
    05:00 +14°C° 0 mm 3 mps 727 mmHg 76%
    06:00 +16°C° 0 mm 3 mps 727 mmHg 70%
    07:00 +18°C° 0 mm 3 mps 727 mmHg 62%
    08:00 +20°C° 0 mm 3 mps 727 mmHg 54%
    09:00 +22°C° 0 mm 3 mps 727 mmHg 46%
    10:00 +24°C° 0 mm 3 mps 727 mmHg 42%
    11:00 +26°C° 0 mm 3 mps 727 mmHg 37%
    12:00 +27°C° 0 mm 3 mps 726 mmHg 33%
    13:00 +28°C° 0 mm 4 mps 727 mmHg 31%
    14:00 +28°C° 0 mm 4 mps 727 mmHg 30%
    15:00 +28°C° 0 mm 4 mps 727 mmHg 29%
    16:00 +26°C° 0 mm 4 mps 727 mmHg 43%
    17:00 +22°C° 0 mm 4 mps 727 mmHg 58%
    18:00 +19°C° 0 mm 4 mps 728 mmHg 72%
    19:00 +17°C° 0.1 mm 3 mps 728 mmHg 74%
    20:00 +16°C° 0.1 mm 2 mps 729 mmHg 76%
    21:00 +14°C° 0.1 mm 2 mps 729 mmHg 78%
    22:00 +13°C° 1.8 mm 2 mps 730 mmHg 82%
    23:00 +11°C° 1.8 mm 3 mps 730 mmHg 87%

    Day after tomorrow, 29 May, Friday

    Time Temperature Precipitation Wind Pressure Humidity
    00:00 +10°C° 1.8 mm 3 mps 731 mmHg 91%
    01:00 +10°C° 0.9 mm 3 mps 731 mmHg 91%
    02:00 +9°C° 0.9 mm 3 mps 732 mmHg 91%
    03:00 +8°C° 0.9 mm 3 mps 733 mmHg 91%
    04:00 +8°C° 0.1 mm 3 mps 733 mmHg 87%
    05:00 +7°C° 0.1 mm 3 mps 734 mmHg 82%
    06:00 +5°C° 0.1 mm 4 mps 735 mmHg 77%
    07:00 +7°C° 0 mm 4 mps 735 mmHg 67%
    08:00 +9°C° 0 mm 3 mps 736 mmHg 57%
    09:00 +10°C° 0 mm 3 mps 736 mmHg 48%
    10:00 +10°C° 0 mm 4 mps 736 mmHg 47%
    11:00 +11°C° 0 mm 4 mps 736 mmHg 46%
    12:00 +10°C° 0 mm 5 mps 736 mmHg 46%
    13:00 +12°C° 0 mm 5 mps 736 mmHg 46%
    14:00 +12°C° 0 mm 4 mps 736 mmHg 45%
    15:00 +12°C° 0 mm 4 mps 736 mmHg 45%
    16:00 +12°C° 0.1 mm 4 mps 736 mmHg 42%
    17:00 +12°C° 0.1 mm 4 mps 737 mmHg 39%
    18:00 +11°C° 0.1 mm 4 mps 737 mmHg 35%
    19:00 +10°C° 0 mm 3 mps 737 mmHg 42%
    20:00 +8°C° 0 mm 3 mps 738 mmHg 50%
    21:00 +6°C° 0 mm 2 mps 738 mmHg 57%
    22:00 +5°C° 0 mm 2 mps 738 mmHg 59%
    23:00 +4°C° 0 mm 2 mps 738 mmHg 62%

    30 May, Saturday

    Time Temperature Precipitation Wind Pressure Humidity
    00:00 +3°C° 0 mm 2 mps 739 mmHg 65%
    01:00 +3°C° 0 mm 2 mps 739 mmHg 67%
    02:00 +2°C° 0 mm 2 mps 739 mmHg 69%
    03:00 +1°C° 0 mm 2 mps 739 mmHg 72%
    04:00 +3°C° 0 mm 2 mps 739 mmHg 65%
    05:00 +5°C° 0 mm 2 mps 739 mmHg 59%
    06:00 +5°C° 0 mm 3 mps 740 mmHg 52%
    07:00 +8°C° 0 mm 3 mps 740 mmHg 47%
    08:00 +8°C° 0 mm 4 mps 740 mmHg 42%
    09:00 +11°C° 0 mm 4 mps 740 mmHg 37%
    10:00 +11°C° 0 mm 4 mps 739 mmHg 35%
    11:00 +12°C° 0 mm 4 mps 739 mmHg 34%
    12:00 +13°C° 0 mm 4 mps 739 mmHg 33%
    13:00 +13°C° 0 mm 4 mps 739 mmHg 32%
    14:00 +14°C° 0 mm 4 mps 739 mmHg 32%
    15:00 +14°C° 0 mm 3 mps 738 mmHg 31%
    16:00 +14°C° 0 mm 3 mps 739 mmHg 33%
    17:00 +13°C° 0 mm 3 mps 739 mmHg 34%
    18:00 +13°C° 0 mm 3 mps 739 mmHg 36%
    19:00 +12°C° 0 mm 2 mps 739 mmHg 44%
    20:00 +10°C° 0 mm 1 mps 739 mmHg 51%
    21:00 +8°C° 0 mm 1 mps 740 mmHg 59%
    22:00 +7°C° 0 mm 1 mps 740 mmHg 62%
    23:00 +6°C° 0 mm 1 mps 740 mmHg 65%

    31 May, Sunday

    Time Temperature Precipitation Wind Pressure Humidity
    00:00 +4°C° 0 mm 0 mps 740 mmHg 69%
    01:00 +4°C° 0 mm 0 mps 740 mmHg 71%
    02:00 +3°C° 0 mm 0 mps 740 mmHg 73%
    03:00 +3°C° 0 mm 0 mps 740 mmHg 75%
    04:00 +5°C° 0 mm 0 mps 740 mmHg 68%
    05:00 +7°C° 0 mm 0 mps 740 mmHg 62%
    06:00 +9°C° 0 mm 0 mps 740 mmHg 55%
    07:00 +11°C° 0 mm 0 mps 740 mmHg 49%
    08:00 +13°C° 0 mm 0 mps 740 mmHg 44%
    09:00 +16°C° 0 mm 0 mps 740 mmHg 38%
    10:00 +18°C° 0 mm 1 mps 740 mmHg 38%
    11:00 +16°C° 0 mm 1 mps 739 mmHg 38%
    12:00 +16°C° 0 mm 1 mps 739 mmHg 38%
    13:00 +16°C° 0 mm 1 mps 739 mmHg 37%
    14:00 +16°C° 0 mm 1 mps 739 mmHg 37%
    15:00 +18°C° 0 mm 1 mps 739 mmHg 36%
    16:00 +18°C° 0 mm 1 mps 739 mmHg 37%
    17:00 +16°C° 0 mm 1 mps 739 mmHg 38%
    18:00 +15°C° 0 mm 0 mps 739 mmHg 38%
    19:00 +13°C° 0 mm 0 mps 739 mmHg 45%
    20:00 +11°C° 0 mm 0 mps 739 mmHg 52%
    21:00 +9°C° 0 mm 0 mps 739 mmHg 59%
    22:00 +8°C° 0 mm 0 mps 739 mmHg 62%
    23:00 +7°C° 0 mm 0 mps 739 mmHg 65%

    1 June, Monday

    Time Temperature Precipitation Wind Pressure Humidity
    00:00 +6°C° 0 mm 0 mps 739 mmHg 68%
    01:00 +5°C° 0 mm 0 mps 739 mmHg 69%
    02:00 +5°C° 0 mm 0 mps 739 mmHg 70%
    03:00 +5°C° 0 mm 0 mps 739 mmHg 72%
    04:00 +7°C° 0 mm 0 mps 739 mmHg 66%
    05:00 +8°C° 0 mm 0 mps 739 mmHg 61%
    06:00 +11°C° 0 mm 1 mps 739 mmHg 55%
    07:00 +13°C° 0 mm 1 mps 739 mmHg 49%
    08:00 +15°C° 0 mm 1 mps 739 mmHg 43%
    09:00 +18°C° 0 mm 1 mps 738 mmHg 36%
    10:00 +18°C° 0 mm 2 mps 738 mmHg 34%
    11:00 +19°C° 0 mm 2 mps 737 mmHg 32%
    12:00 +19°C° 0 mm 2 mps 737 mmHg 29%
    13:00 +19°C° 0 mm 2 mps 737 mmHg 28%
    14:00 +19°C° 0 mm 2 mps 736 mmHg 28%
    15:00 +20°C° 0 mm 2 mps 736 mmHg 27%
    16:00 +19°C° 0 mm 2 mps 736 mmHg 29%
    17:00 +19°C° 0 mm 3 mps 736 mmHg 30%
    18:00 +18°C° 0 mm 3 mps 735 mmHg 32%
    19:00 +16°C° 0 mm 2 mps 736 mmHg 39%
    20:00 +14°C° 0 mm 2 mps 736 mmHg 45%
    21:00 +10°C° 0 mm 2 mps 736 mmHg 52%
    22:00 +9°C° 0 mm 2 mps 736 mmHg 53%
    23:00 +8°C° 0 mm 2 mps 736 mmHg 54%
    Show more